Location: Sungai Anya
(2.6167°N, 114.0500°E)
Time: 19:47:35
(UTC+00:00)

Cosmos 2360 Rocket - Pass Details

Date: 19 October 2021
Orbit: 832 x 846 km, 71.0° (Epoch: 08 December)

Event Time Altitude Azimuth Distance (km) Brightness Sun altitude
Rises 10:50:10 0° 188° (S) 3,373 5.6 -10.6°
Reaches altitude 10° 10:52:38 10° 184° (S) 2,439 4.8 -11.3°
Maximum altitude 10:58:08 60° 105° (ESE) 950 2.2 -12.6°
Drops below altitude 10° 11:03:38 10° 26° (NNE) 2,438 4.3 -14.0°
Sets 11:06:06 0° 23° (NNE) 3,372 5.0 -14.6°
Enters shadow 11:06:15 -1° 22° (NNE) 3,435 5.1 -14.6°
